LOT65X EDDF-EPWA

Flight info

Callsign LOT65X
Flight time N/A
Altitude 41000
Route SULUS7S/18 SULUS L984 OKG DCT BALTU DCT LEGAZ DCT LAGAR DCT OKENO Q277 AGAVA
Aircraft B772/H-SDE2E3FGHIJ5LORVWXY/LB1D1

Departure

Time 2026-05-04 19:12
Airport Frankfurt Main Airport (EDDF)

Arrival

Time N/A
Airport Warsaw Chopin Airport (EPWA)
Time Latitude Longitude Altitude Speed Heading
2026-05-04 18:13 50.04898 8.57456 361 ft 0 kts 220°
2026-05-04 18:49 50.04903 8.57462 361 ft 1 kts 220°
2026-05-04 18:49 50.04911 8.57473 361 ft 2 kts 211°
2026-05-04 18:49 50.04924 8.57481 361 ft 2 kts 189°
2026-05-04 18:49 50.04939 8.57482 361 ft 2 kts 171°
2026-05-04 18:50 50.04953 8.57475 361 ft 2 kts 152°
2026-05-04 18:50 50.04965 8.57462 361 ft 2 kts 133°
2026-05-04 18:50 50.04973 8.57445 361 ft 0 kts 116°
2026-05-04 18:50 50.04975 8.57439 361 ft 0 kts 114°
2026-05-04 18:56 50.04973 8.57443 361 ft 2 kts 114°
2026-05-04 18:56 50.04959 8.57486 361 ft 6 kts 123°
2026-05-04 18:56 50.04929 8.57568 360 ft 11 kts 116°
2026-05-04 18:57 50.04895 8.57684 360 ft 9 kts 114°
2026-05-04 18:57 50.04864 8.57789 360 ft 8 kts 114°
2026-05-04 18:57 50.04863 8.57794 360 ft 0 kts 114°
2026-05-04 18:59 50.04857 8.57814 360 ft 5 kts 114°
2026-05-04 18:59 50.04825 8.57884 360 ft 9 kts 140°
2026-05-04 18:59 50.04754 8.57937 360 ft 12 kts 161°
2026-05-04 18:59 50.04661 8.57987 360 ft 15 kts 161°
2026-05-04 19:00 50.04592 8.58032 360 ft 9 kts 146°
2026-05-04 19:00 50.04570 8.58135 360 ft 12 kts 83°
2026-05-04 19:00 50.04604 8.58268 360 ft 14 kts 67°
2026-05-04 19:00 50.04635 8.58386 360 ft 8 kts 69°
2026-05-04 19:01 50.04642 8.58417 360 ft 2 kts 69°
2026-05-04 19:01 50.04649 8.58442 360 ft 0 kts 69°
2026-05-04 19:03 50.04651 8.58448 360 ft 1 kts 68°
2026-05-04 19:03 50.04655 8.58468 360 ft 1 kts 70°
2026-05-04 19:03 50.04656 8.58471 360 ft 0 kts 70°
2026-05-04 19:04 50.04657 8.58477 360 ft 2 kts 70°
2026-05-04 19:04 50.04661 8.58518 360 ft 5 kts 97°
2026-05-04 19:04 50.04655 8.58540 360 ft 3 kts 124°
2026-05-04 19:05 50.04651 8.58548 360 ft 1 kts 140°
2026-05-04 19:05 50.04650 8.58549 360 ft 0 kts 147°
2026-05-04 19:06 50.04624 8.58571 360 ft 6 kts 159°
2026-05-04 19:06 50.04619 8.58574 360 ft 0 kts 159°
2026-05-04 19:09 50.04608 8.58581 360 ft 4 kts 159°
2026-05-04 19:09 50.04568 8.58605 360 ft 7 kts 159°
2026-05-04 19:09 50.04511 8.58621 360 ft 5 kts 207°
2026-05-04 19:09 50.04488 8.58573 360 ft 7 kts 243°
2026-05-04 19:10 50.04473 8.58517 360 ft 0 kts 251°
2026-05-04 19:11 50.04473 8.58516 360 ft 1 kts 251°
2026-05-04 19:11 50.04448 8.58411 360 ft 27 kts 249°
2026-05-04 19:11 50.04308 8.57808 360 ft 106 kts 249°
2026-05-04 19:11 50.03949 8.56264 389 ft 191 kts 253°
2026-05-04 19:12 50.03484 8.54400 1065 ft 180 kts 250°
2026-05-04 19:12 50.02490 8.50565 1921 ft 208 kts 237°
2026-05-04 19:12 50.01337 8.49125 2570 ft 226 kts 202°
2026-05-04 19:13 49.99740 8.48709 3220 ft 245 kts 178°
2026-05-04 19:13 49.98066 8.49449 3863 ft 263 kts 151°
2026-05-04 19:13 49.96711 8.51435 4549 ft 277 kts 122°
2026-05-04 19:13 49.95876 8.54134 4958 ft 283 kts 113°
2026-05-04 19:14 49.95079 8.56795 4991 ft 281 kts 116°
2026-05-04 19:14 49.94326 8.59625 4988 ft 278 kts 103°
2026-05-04 19:14 49.94034 8.62556 4993 ft 276 kts 95°
2026-05-04 19:14 49.93882 8.65539 4995 ft 274 kts 94°
2026-05-04 19:15 49.93478 8.68374 4997 ft 275 kts 115°
2026-05-04 19:15 49.92328 8.70774 5001 ft 275 kts 137°
2026-05-04 19:15 49.90865 8.72663 5004 ft 275 kts 143°
2026-05-04 19:15 49.89292 8.74484 5288 ft 292 kts 140°
2026-05-04 19:16 49.88039 8.76797 6497 ft 283 kts 123°
2026-05-04 19:16 49.87043 8.79354 7509 ft 283 kts 120°
2026-05-04 19:16 49.86074 8.82022 8343 ft 290 kts 119°
2026-05-04 19:16 49.85093 8.84742 9208 ft 294 kts 119°
2026-05-04 19:17 49.84077 8.87547 10061 ft 299 kts 119°
2026-05-04 19:17 49.83152 8.90102 10704 ft 307 kts 119°
2026-05-04 19:17 49.82074 8.93074 11060 ft 334 kts 121°
2026-05-04 19:17 49.80884 8.96334 11040 ft 365 kts 122°
2026-05-04 19:18 49.79628 8.99779 11015 ft 374 kts 122°
2026-05-04 19:18 49.78344 9.03304 11010 ft 376 kts 122°
2026-05-04 19:18 49.77061 9.06827 11089 ft 377 kts 120°
2026-05-04 19:18 49.76031 9.10632 11599 ft 387 kts 109°
2026-05-04 19:19 49.75379 9.14410 12400 ft 391 kts 106°
2026-05-04 19:19 49.74731 9.18452 13374 ft 392 kts 106°
2026-05-04 19:19 49.74073 9.22520 14140 ft 398 kts 106°
2026-05-04 19:19 49.73407 9.26618 14861 ft 405 kts 106°
2026-05-04 19:20 49.72718 9.30857 15630 ft 410 kts 106°
2026-05-04 19:20 49.72016 9.35167 16381 ft 416 kts 106°
2026-05-04 19:20 49.71308 9.39501 17106 ft 421 kts 106°
2026-05-04 19:20 49.70597 9.43854 17808 ft 426 kts 106°
2026-05-04 19:21 49.69864 9.48321 18519 ft 431 kts 106°
2026-05-04 19:21 49.69127 9.52801 19221 ft 436 kts 106°
2026-05-04 19:21 49.68371 9.57383 19914 ft 441 kts 106°
2026-05-04 19:21 49.67675 9.62006 20583 ft 447 kts 101°
2026-05-04 19:22 49.67421 9.66724 21224 ft 454 kts 91°
2026-05-04 19:22 49.67685 9.71638 21857 ft 461 kts 82°
2026-05-04 19:22 49.68428 9.76453 22480 ft 466 kts 76°
2026-05-04 19:22 49.69298 9.81251 22944 ft 472 kts 75°
2026-05-04 19:23 49.70177 9.86109 22973 ft 472 kts 75°
2026-05-04 19:23 49.70940 9.90262 22971 ft 471 kts 73°
2026-05-04 19:23 49.72265 9.95258 23079 ft 473 kts 63°
2026-05-04 19:23 49.73958 9.99524 23046 ft 469 kts 55°
2026-05-04 19:24 49.75847 10.03625 22979 ft 468 kts 54°
2026-05-04 19:24 49.77706 10.07625 22964 ft 468 kts 54°
2026-05-04 19:24 49.79615 10.11743 22959 ft 468 kts 54°
2026-05-04 19:24 49.81509 10.15838 22957 ft 468 kts 54°
2026-05-04 19:25 49.83379 10.19889 22962 ft 468 kts 54°
2026-05-04 19:25 49.85250 10.23954 22963 ft 468 kts 54°
2026-05-04 19:25 49.87117 10.28017 22962 ft 468 kts 54°
2026-05-04 19:25 49.89025 10.32178 22963 ft 468 kts 54°
2026-05-04 19:26 49.90891 10.36254 22965 ft 468 kts 54°
2026-05-04 19:26 49.92749 10.40319 22968 ft 468 kts 54°
2026-05-04 19:26 49.94647 10.44482 22970 ft 468 kts 54°
2026-05-04 19:26 49.96517 10.48587 22972 ft 468 kts 54°
2026-05-04 19:27 49.98410 10.52751 22974 ft 468 kts 54°
2026-05-04 19:27 50.00288 10.56888 22976 ft 468 kts 54°
2026-05-04 19:27 50.02136 10.60966 22977 ft 468 kts 54°
2026-05-04 19:27 50.03975 10.65085 22976 ft 468 kts 57°
2026-05-04 19:28 50.05539 10.69574 22973 ft 469 kts 66°
2026-05-04 19:28 50.06644 10.74333 22971 ft 468 kts 75°
2026-05-04 19:28 50.07281 10.79289 22969 ft 467 kts 84°
2026-05-04 19:28 50.07465 10.84302 22971 ft 466 kts 90°
2026-05-04 19:29 50.07490 10.89322 22970 ft 466 kts 91°
2026-05-04 19:29 50.07499 10.94346 22971 ft 466 kts 91°
2026-05-04 19:29 50.07502 10.99328 22975 ft 466 kts 91°
2026-05-04 19:29 50.07501 11.04316 22973 ft 465 kts 91°
2026-05-04 19:30 50.07497 11.08954 22974 ft 465 kts 91°
2026-05-04 19:30 50.07483 11.14065 22975 ft 465 kts 92°
2026-05-04 19:30 50.07457 11.19144 22981 ft 467 kts 91°
2026-05-04 19:30 50.07447 11.24082 23091 ft 477 kts 91°
2026-05-04 19:31 50.07436 11.29247 23718 ft 478 kts 91°
2026-05-04 19:31 50.07420 11.34430 24530 ft 474 kts 91°
2026-05-04 19:31 50.07401 11.39526 25111 ft 476 kts 91°
2026-05-04 19:31 50.07378 11.44700 25510 ft 482 kts 91°
2026-05-04 19:32 50.07353 11.49936 26055 ft 488 kts 91°
2026-05-04 19:32 50.07324 11.55261 26684 ft 492 kts 91°
2026-05-04 19:32 50.07292 11.60596 27311 ft 496 kts 91°
2026-05-04 19:32 50.07261 11.65623 27888 ft 500 kts 92°
2026-05-04 19:33 50.07226 11.71244 28481 ft 504 kts 92°
2026-05-04 19:33 50.07190 11.76656 29027 ft 508 kts 92°
2026-05-04 19:33 50.07151 11.82148 29591 ft 512 kts 92°
2026-05-04 19:33 50.07109 11.87683 30254 ft 513 kts 92°
2026-05-04 19:34 50.07069 11.92614 30966 ft 510 kts 92°
2026-05-04 19:34 50.07098 11.98466 31855 ft 507 kts 87°
2026-05-04 19:34 50.07575 12.03840 32630 ft 505 kts 78°
2026-05-04 19:34 50.08517 12.09020 33353 ft 504 kts 71°
2026-05-04 19:35 50.09636 12.14042 34065 ft 503 kts 71°
2026-05-04 19:35 50.10745 12.18960 34744 ft 502 kts 71°
2026-05-04 19:35 50.11808 12.23680 35386 ft 502 kts 71°
2026-05-04 19:35 50.12938 12.28712 36055 ft 500 kts 71°
2026-05-04 19:36 50.14058 12.33709 36647 ft 499 kts 71°
2026-05-04 19:36 50.15168 12.38672 37172 ft 498 kts 71°
2026-05-04 19:36 50.16205 12.43319 37614 ft 497 kts 71°
2026-05-04 19:36 50.17394 12.48657 38078 ft 498 kts 71°
2026-05-04 19:37 50.18473 12.53519 38451 ft 498 kts 71°